Weather History for Tawau, Malaysia

Change the Weather History Date:

Saturday, March 9, 2013

  Actual Average Record
Temperature  
Mean Temperature 82 °F -  
Max Temperature 89 °F 89 °F - ()
Min Temperature 76 °F 73 °F - ()
Cooling Degree Days 18    
Growing Degree Days 32 (Base 50)    
Moisture  
Dew Point 74 °F    
Average Humidity 75    
Maximum Humidity 94    
Minimum Humidity 54    
Precipitation  
Precipitation 0.01 in 0.13 in - ()
Sea Level Pressure  
Sea Level Pressure 29.83 in    
Wind  
Wind Speed 4 mph ()    
Max Wind Speed 10 mph    
Max Gust Speed -    
Visibility 6.3 miles    
Events      
T = Trace of Precipitation, MM = Missing Value Source: Averaged Metar Reports

Daily Weather History Graph

Daily Weather History Graph

Search for Another Location

Airport:

Trip Planner

Search our weather history database for the weather conditions in past years. The results will help you decide how hot, cold, wet, or windy it might be!

Date:

Astronomy

Mar. 09, 2013 Rise Set
Actual Time 6:16 AM MYT 6:20 PM MYT
Civil Twilight 5:55 AM MYT 6:40 PM MYT
Nautical Twilight 5:31 AM MYT 7:04 PM MYT
Astronomical Twilight 5:07 AM MYT 7:29 PM MYT
Moon 3:49 AM MYT (3/9) 4:06 PM MYT (3/9)
Length of Visible Light 12h 45m
Length of Day
12h 03m
Waning Crescent, 9% of the Moon is Illuminated
Mar 9
Waning Crescent
Mar 12
New
Mar 20
First Quarter
Mar 27
Full
Apr 3
Last Quarter

Hourly Weather History & Observations

Time (MYT) Temp. Heat Index Dew Point Humidity Pressure Visibility Wind Dir Wind Speed Gust Speed Precip Events Conditions
12:00 AM 77.0 °F - 73.4 °F 89% 29.83 in 6.2 mi NNE 2.3 mph - N/A   Mostly Cloudy
1:00 AM 78.8 °F - 71.6 °F 78% 29.83 in 6.2 mi North 5.8 mph - N/A   Mostly Cloudy
2:00 AM 76 °F - 71 °F 79% 29.81 in 7 mi North 3.5 mph - -   Scattered Clouds
2:00 AM 77.0 °F - 71.6 °F 83% 29.80 in 6.2 mi North 3.5 mph - N/A   Mostly Cloudy
3:00 AM 77.0 °F - 71.6 °F 83% 29.80 in 6.2 mi NNE 3.5 mph - N/A   Mostly Cloudy
4:00 AM 77.0 °F - 71.6 °F 83% 29.80 in 6.2 mi NNE 3.5 mph - N/A   Mostly Cloudy
5:00 AM 78 °F - 71 °F 73% 29.81 in 7 mi NNE 3.5 mph - -   Scattered Clouds
5:00 AM 77.0 °F - 71.6 °F 83% 29.80 in 6.2 mi NNE 3.5 mph - N/A   Mostly Cloudy
6:00 AM 77.0 °F - 69.8 °F 78% 29.83 in 6.2 mi NNW 4.6 mph - N/A   Mostly Cloudy
7:00 AM 78.8 °F - 71.6 °F 78% 29.86 in 6.2 mi North 3.5 mph - N/A   Mostly Cloudy
8:00 AM 83 °F - 73 °F 64% 29.88 in 7 mi North 3.5 mph - -   Scattered Clouds
8:00 AM 82.4 °F 88.2 °F 73.4 °F 74% 29.86 in 6.2 mi North 3.5 mph - N/A   Mostly Cloudy
9:00 AM 84.2 °F 90.9 °F 73.4 °F 70% 29.89 in 6.2 mi North 4.6 mph - N/A   Mostly Cloudy
10:00 AM 84.2 °F 90.9 °F 73.4 °F 70% 29.89 in 6.2 mi North 4.6 mph - N/A   Mostly Cloudy
11:00 AM 88 °F - 73 °F 54% 29.88 in 6 mi NE 6.9 mph - -   Haze
11:00 AM 87.8 °F 95.6 °F 73.4 °F 62% 29.86 in 6.2 mi NE 6.9 mph - N/A   Mostly Cloudy
12:00 PM 89.6 °F 98.2 °F 73.4 °F 59% 29.83 in 6.2 mi North 5.8 mph - N/A   Mostly Cloudy
1:00 PM 89.6 °F 98.2 °F 73.4 °F 59% 29.80 in 6.2 mi NNE 4.6 mph - N/A   Mostly Cloudy
2:00 PM 89 °F - 76 °F 57% 29.80 in 6 mi South 4.6 mph - -   Haze
2:00 PM 89.6 °F 99.8 °F 75.2 °F 62% 29.77 in 6.2 mi South 4.6 mph - N/A   Mostly Cloudy
3:00 PM 89.6 °F 102.2 °F 77.0 °F 66% 29.77 in 6.2 mi South 10.4 mph - N/A   Mostly Cloudy
4:00 PM 87.8 °F 99.7 °F 77.0 °F 70% 29.74 in 6.2 mi South 9.2 mph - N/A   Mostly Cloudy
5:00 PM 85 °F - 76 °F 68% 29.78 in 6 mi South 3.5 mph - -   Partly Cloudy
5:00 PM 86.0 °F 95.1 °F 75.2 °F 70% 29.77 in 6.2 mi South 3.5 mph - N/A   Mostly Cloudy
6:00 PM 82.4 °F 90.9 °F 77.0 °F 84% 29.80 in 6.2 mi North 3.5 mph - N/A   Mostly Cloudy
7:00 PM 80.6 °F 86.2 °F 75.2 °F 84% 29.83 in 6.2 mi NNW 1.2 mph - N/A   Mostly Cloudy
8:00 PM 79 °F - 75 °F 85% 29.85 in 7 mi North 1.2 mph - -   Scattered Clouds
9:00 PM 78.8 °F - 75.2 °F 89% 29.86 in 6.2 mi North 2.3 mph - N/A   Mostly Cloudy
10:00 PM 77.0 °F - 75.2 °F 94% 29.89 in 6.2 mi NNW 3.5 mph - N/A   Mostly Cloudy
11:00 PM 78 °F - 75 °F 89% 29.89 in 7 mi NW 3.5 mph - -   Partly Cloudy
11:00 PM 78.8 °F - 75.2 °F 89% 29.89 in 6.2 mi NW 3.5 mph - N/A   Mostly Cloudy